NORTHEAST SUFFOLK  -  Winter Weather Advisory Winter Weather Advisory     Winter Weather Advisory Winter Weather Advisory        NORTHERN NASSAU  -  Winter Weather Advisory Winter Weather Advisory        NORTHWEST SUFFOLK  -  Winter Weather Advisory Winter Weather Advisory     Winter Weather Advisory Winter Weather Advisory        SOUTHEAST SUFFOLK  -  Winter Weather Advisory Winter Weather Advisory     Winter Weather Advisory Winter Weather Advisory        SOUTHERN NASSAU  -  Winter Weather Advisory Winter Weather Advisory        SOUTHWEST SUFFOLK  -  Winter Weather Advisory Winter Weather Advisory     Winter Weather Advisory Winter Weather Advisory      

Active alerts

Northern Nassau
  Details for Northern Nassau Winter Weather Advisory
Southern Nassau
  Details for Southern Nassau Winter Weather Advisory
Northwest Suffolk
  Details for Northwest Suffolk Winter Weather Advisory  +1 additional alert
Southwest Suffolk
  Details for Southwest Suffolk Winter Weather Advisory  +1 additional alert
Northeast Suffolk
  Details for Northeast Suffolk Winter Weather Advisory  +1 additional alert
Southeast Suffolk
  Details for Southeast Suffolk Winter Weather Advisory  +1 additional alert


WXM80 ListenWXM80 Stop

You find our weather info also at:

UK Metoffice

WeatherCloud

Weather Underground

Northeastern Weather Network

AWEKAS

Citizen Weather Observer Program (CWOP)

HAMweather, WeatherForYou, PWS Weather


Weather Underground History page Text

Daily Summary for May 10, 2017 Units:  English    Metric   Both
« Previous Day
Next Day »
Daily Weekly Monthly Yearly Custom
  High: Low: Average:
Temperature: 66.8 °F 46.5 °F 55.1 °F
Dew Point: 45.2 °F 38.1 °F 41.9 °F
Humidity: 90 % 39 % 63 %
Wind Speed: 4.6 mph 0.0 mph 1.1 mph
Wind Gust: 8.1 mph - -
Wind:- - East
Pressure: 30.02 in 29.96 in -
Precipitation: 0.00 in    
Historical Graphs
 
 
Tabular Data for May 10, 2017
Time Temperature Dew Point Pressure Wind Wind Speed Wind Gust Humidity Rainfall Rate (Hourly)
00:04 48.1 °F 41.9 °F 29.96 in Calm     79 % 0.00 in
00:09 48.0 °F 42.1 °F 29.97 in Calm     80 % 0.00 in
00:14 47.8 °F 41.9 °F 29.97 in Calm     80 % 0.00 in
00:19 47.7 °F 41.8 °F 29.97 in Calm     80 % 0.00 in
00:24 47.5 °F 41.6 °F 29.97 in Calm     80 % 0.00 in
00:29 47.4 °F 41.5 °F 29.97 in Calm     80 % 0.00 in
00:34 47.4 °F 41.9 °F 29.98 in Calm     81 % 0.00 in
00:39 47.3 °F 42.1 °F 29.97 in Calm     82 % 0.00 in
00:44 47.2 °F 42.0 °F 29.97 in Calm     82 % 0.00 in
00:49 47.2 °F 42.3 °F 29.97 in Calm     83 % 0.00 in
00:52 47.2 °F 42.3 °F 29.97 in Calm     83 % 0.00 in
00:57 47.1 °F 42.5 °F 29.97 in Calm     84 % 0.00 in
01:02 47.1 °F 42.5 °F 29.96 in Calm     84 % 0.00 in
01:07 47.0 °F 42.7 °F 29.96 in Calm     85 % 0.00 in
01:12 46.9 °F 42.6 °F 29.96 in Calm     85 % 0.00 in
01:17 46.9 °F 42.6 °F 29.96 in Calm     85 % 0.00 in
01:22 46.8 °F 42.5 °F 29.96 in Calm     85 % 0.00 in
01:28 46.8 °F 42.5 °F 29.96 in Calm     85 % 0.00 in
01:33 46.7 °F 42.7 °F 29.96 in Calm     86 % 0.00 in
01:38 46.7 °F 42.7 °F 29.96 in Calm     86 % 0.00 in
01:43 46.7 °F 43.0 °F 29.96 in ENE 0.1 mph 1.2 mph 87 % 0.00 in
01:48 46.6 °F 43.2 °F 29.96 in Calm     88 % 0.00 in
01:53 46.6 °F 42.9 °F 29.96 in Calm     87 % 0.00 in
01:58 46.6 °F 43.2 °F 29.97 in Calm     88 % 0.00 in
02:03 46.5 °F 43.4 °F 29.97 in Calm     89 % 0.00 in
02:08 46.5 °F 43.4 °F 29.97 in Calm     89 % 0.00 in
02:13 46.5 °F 43.4 °F 29.97 in Calm     89 % 0.00 in
02:18 46.6 °F 43.5 °F 29.96 in Calm     89 % 0.00 in
02:23 46.6 °F 43.5 °F 29.96 in Calm     89 % 0.00 in
02:28 46.6 °F 43.5 °F 29.96 in Calm     89 % 0.00 in
02:33 46.5 °F 43.4 °F 29.97 in Calm     89 % 0.00 in
02:38 46.6 °F 43.5 °F 29.97 in Calm     89 % 0.00 in
02:43 46.6 °F 43.5 °F 29.96 in Calm     89 % 0.00 in
02:48 46.6 °F 43.5 °F 29.97 in Calm     89 % 0.00 in
02:53 46.6 °F 43.5 °F 29.96 in Calm     89 % 0.00 in
02:59 46.7 °F 43.9 °F 29.96 in Calm     90 % 0.00 in
03:04 46.7 °F 43.9 °F 29.96 in Calm     90 % 0.00 in
03:09 46.7 °F 43.9 °F 29.96 in Calm     90 % 0.00 in
03:14 46.7 °F 43.9 °F 29.96 in Calm     90 % 0.00 in
03:19 46.7 °F 43.9 °F 29.96 in Calm     90 % 0.00 in
03:24 46.7 °F 43.9 °F 29.96 in Calm     90 % 0.00 in
03:29 46.7 °F 43.9 °F 29.96 in Calm     90 % 0.00 in
03:34 46.7 °F 43.6 °F 29.96 in Calm     89 % 0.00 in
03:35 46.7 °F 43.6 °F 29.96 in Calm     89 % 0.00 in
03:40 46.7 °F 43.6 °F 29.96 in Calm   1.0 mph 89 % 0.00 in
03:45 46.7 °F 43.3 °F 29.96 in Calm     88 % 0.00 in
03:47 46.7 °F 43.3 °F 29.96 in Calm     88 % 0.00 in
03:52 46.7 °F 43.3 °F 29.96 in Calm     88 % 0.00 in
03:57 46.7 °F 43.0 °F 29.97 in ENE 0.6 mph 2.0 mph 87 % 0.00 in
04:02 46.6 °F 42.3 °F 29.97 in NNE 1.3 mph 3.5 mph 85 % 0.00 in
04:07 46.7 °F 42.4 °F 29.97 in NNE 0.4 mph 1.0 mph 85 % 0.00 in
04:12 46.8 °F 42.5 °F 29.96 in NNE 2.7 mph 3.5 mph 85 % 0.00 in
04:14 46.8 °F 42.2 °F 29.97 in NNE 2.0 mph 3.5 mph 84 % 0.00 in
04:19 46.9 °F 42.0 °F 29.97 in NNE 0.9 mph 3.5 mph 83 % 0.00 in
04:24 47.0 °F 41.8 °F 29.97 in NNE 2.4 mph 3.5 mph 82 % 0.00 in
04:29 47.1 °F 41.2 °F 29.97 in NNE 3.6 mph 5.8 mph 80 % 0.00 in
04:34 47.3 °F 41.1 °F 29.97 in NNE 3.0 mph 3.5 mph 79 % 0.00 in
04:39 47.4 °F 41.2 °F 29.97 in NNE 0.9 mph 3.5 mph 79 % 0.00 in
04:44 47.6 °F 41.1 °F 29.96 in North 1.3 mph 3.5 mph 78 % 0.00 in
04:49 47.7 °F 40.8 °F 29.96 in NNE 2.4 mph 4.6 mph 77 % 0.00 in
04:54 47.7 °F 40.8 °F 29.96 in NNE 2.5 mph 4.0 mph 77 % 0.00 in
04:59 47.8 °F 40.6 °F 29.96 in North 1.4 mph 3.5 mph 76 % 0.00 in
05:04 47.8 °F 40.6 °F 29.96 in Calm     76 % 0.00 in
05:09 47.9 °F 40.7 °F 29.96 in NNE 1.9 mph 3.5 mph 76 % 0.00 in
05:10 47.9 °F 40.7 °F 29.96 in NNE 2.3 mph 3.5 mph 76 % 0.00 in
05:15 47.9 °F 40.7 °F 29.96 in NNE 0.4 mph 3.5 mph 76 % 0.00 in
05:20 47.8 °F 40.3 °F 29.96 in NNE 0.2 mph 2.3 mph 75 % 0.00 in
05:25 47.8 °F 40.3 °F 29.97 in NNE 0.4 mph 2.3 mph 75 % 0.00 in
05:30 47.8 °F 40.3 °F 29.97 in NNE 0.3 mph 1.2 mph 75 % 0.00 in
05:35 47.7 °F 40.5 °F 29.97 in NNE 0.9 mph 2.3 mph 76 % 0.00 in
05:40 47.7 °F 40.5 °F 29.97 in NNE 3.0 mph 5.8 mph 76 % 0.00 in
05:45 47.6 °F 40.4 °F 29.97 in NNE 1.9 mph 3.5 mph 76 % 0.00 in
05:50 47.6 °F 40.4 °F 29.97 in NNE 0.7 mph 2.3 mph 76 % 0.00 in
05:55 47.6 °F 40.4 °F 29.97 in NE 0.9 mph 2.3 mph 76 % 0.00 in
06:00 47.6 °F 40.1 °F 29.98 in NNE 1.6 mph 3.5 mph 75 % 0.00 in
06:05 47.5 °F 39.6 °F 29.98 in NNE 1.3 mph 3.5 mph 74 % 0.00 in
06:11 47.5 °F 39.6 °F 29.98 in Calm     74 % 0.00 in
06:16 47.5 °F 39.6 °F 29.98 in North 0.7 mph 4.6 mph 74 % 0.00 in
06:21 47.5 °F 39.6 °F 29.98 in NNE 1.0 mph 3.0 mph 74 % 0.00 in
06:26 47.5 °F 39.6 °F 29.99 in NE 1.0 mph 4.0 mph 74 % 0.00 in
06:31 47.6 °F 39.8 °F 29.99 in ENE 2.0 mph 4.0 mph 74 % 0.00 in
06:36 47.9 °F 40.4 °F 29.99 in ENE 1.0 mph 4.0 mph 75 % 0.00 in
06:41 48.2 °F 40.7 °F 29.99 in ENE 1.0 mph 5.0 mph 75 % 0.00 in
06:46 48.5 °F 40.6 °F 29.99 in Calm   4.0 mph 74 % 0.00 in
06:51 48.8 °F 40.9 °F 29.99 in ENE 1.0 mph 5.0 mph 74 % 0.00 in
06:56 49.1 °F 41.5 °F 29.99 in Calm   3.0 mph 75 % 0.00 in
07:00 49.6 °F 41.3 °F 29.99 in North 1.1 mph 3.5 mph 73 % 0.00 in
07:06 50.1 °F 42.2 °F 29.99 in NE 1.0 mph 4.0 mph 74 % 0.00 in
07:11 50.8 °F 40.2 °F 30.00 in ENE 2.0 mph 5.0 mph 67 % 0.00 in
07:16 51.4 °F 40.0 °F 30.00 in ENE 2.0 mph 6.0 mph 65 % 0.00 in
07:21 51.8 °F 41.6 °F 29.99 in NNE 1.7 mph 3.5 mph 68 % 0.00 in
07:26 52.0 °F 41.4 °F 30.00 in NE 2.0 mph 5.0 mph 67 % 0.00 in
07:31 52.1 °F 41.1 °F 29.99 in Calm   3.0 mph 66 % 0.00 in
07:36 52.3 °F 41.3 °F 30.00 in NE 1.0 mph 5.0 mph 66 % 0.00 in
07:41 52.4 °F 41.0 °F 30.00 in NE 2.0 mph 6.0 mph 65 % 0.00 in
07:46 52.5 °F 41.5 °F 30.00 in NNE 1.0 mph 5.0 mph 66 % 0.00 in
07:51 52.5 °F 40.7 °F 30.00 in NNE 1.0 mph 4.0 mph 64 % 0.00 in
07:56 52.6 °F 41.9 °F 30.00 in NE 1.0 mph 3.0 mph 67 % 0.00 in
08:01 52.8 °F 41.7 °F 30.00 in NNE 4.2 mph 5.8 mph 66 % 0.00 in
08:06 52.8 °F 41.4 °F 30.00 in North 1.4 mph 3.5 mph 65 % 0.00 in
08:11 52.8 °F 41.4 °F 30.00 in NNE 2.3 mph 3.5 mph 65 % 0.00 in
08:16 52.6 °F 40.8 °F 30.00 in NE 2.4 mph 3.5 mph 64 % 0.00 in
08:21 52.7 °F 41.3 °F 30.00 in NE 2.2 mph 3.5 mph 65 % 0.00 in
08:26 52.8 °F 41.7 °F 30.00 in North 4.4 mph 5.0 mph 66 % 0.00 in
08:31 52.8 °F 40.1 °F 30.01 in NNE 1.6 mph 4.6 mph 62 % 0.00 in
08:36 52.8 °F 41.0 °F 30.01 in ENE 1.0 mph 4.0 mph 64 % 0.00 in
08:41 52.8 °F 41.0 °F 30.01 in NNE 3.4 mph 5.8 mph 64 % 0.00 in
08:46 52.9 °F 41.4 °F 30.01 in NNE 2.8 mph 5.0 mph 65 % 0.00 in
08:51 53.0 °F 40.7 °F 30.01 in NE 3.6 mph 6.9 mph 63 % 0.00 in
08:56 53.2 °F 40.5 °F 30.01 in ENE 4.6 mph 8.0 mph 62 % 0.00 in
09:01 53.0 °F 39.9 °F 30.01 in East 3.1 mph 6.0 mph 61 % 0.00 in
09:06 53.0 °F 40.7 °F 30.01 in ENE 2.0 mph 5.0 mph 63 % 0.00 in
09:11 53.2 °F 41.7 °F 30.01 in ENE 0.7 mph 3.5 mph 65 % 0.00 in
09:16 53.5 °F 42.0 °F 30.01 in NE 1.2 mph 3.5 mph 65 % 0.00 in
09:21 53.6 °F 41.3 °F 30.01 in North 3.3 mph 5.8 mph 63 % 0.00 in
09:26 53.8 °F 40.7 °F 30.01 in ENE 1.3 mph 3.5 mph 61 % 0.00 in
09:31 53.7 °F 39.7 °F 30.01 in ENE 1.0 mph 3.5 mph 59 % 0.00 in
09:36 53.7 °F 41.0 °F 30.01 in North 2.0 mph 4.0 mph 62 % 0.00 in
09:41 54.0 °F 41.7 °F 30.01 in North 3.6 mph 5.8 mph 63 % 0.00 in
09:46 54.4 °F 42.5 °F 30.01 in ENE 2.3 mph 3.5 mph 64 % 0.00 in
09:51 54.9 °F 42.5 °F 30.01 in ENE 1.8 mph 3.5 mph 63 % 0.00 in
09:56 55.5 °F 42.3 °F 30.01 in North 2.1 mph 4.0 mph 61 % 0.00 in
10:01 56.3 °F 42.6 °F 30.01 in ENE 1.3 mph 3.0 mph 60 % 0.00 in
10:06 56.6 °F 40.6 °F 30.01 in ENE 2.4 mph 3.5 mph 55 % 0.00 in
10:11 56.8 °F 41.3 °F 30.01 in ENE 2.4 mph 5.0 mph 56 % 0.00 in
10:16 57.3 °F 41.3 °F 30.00 in ENE 3.2 mph 5.0 mph 55 % 0.00 in
10:21 57.7 °F 42.1 °F 30.00 in NNE 0.2 mph 2.3 mph 56 % 0.00 in
10:26 57.8 °F 39.3 °F 30.00 in ENE 2.7 mph 4.6 mph 50 % 0.00 in
10:31 58.1 °F 42.0 °F 30.00 in ENE 2.0 mph 5.0 mph 55 % 0.00 in
10:36 58.5 °F 43.3 °F 30.00 in ENE 0.4 mph 3.5 mph 57 % 0.00 in
10:41 59.0 °F 42.4 °F 30.00 in NE 0.2 mph 1.2 mph 54 % 0.00 in
10:46 59.6 °F 40.9 °F 30.00 in East 0.4 mph 1.2 mph 50 % 0.00 in
10:51 59.5 °F 40.3 °F 30.00 in NE 1.7 mph 3.5 mph 49 % 0.00 in
10:56 59.8 °F 43.1 °F 30.00 in Calm   1.2 mph 54 % 0.00 in
11:01 60.4 °F 42.7 °F 30.00 in NNE 3.1 mph 4.6 mph 52 % 0.00 in
11:06 61.4 °F 42.6 °F 29.99 in WSW 1.9 mph 4.6 mph 50 % 0.00 in
11:12 62.2 °F 43.8 °F 29.99 in North 1.9 mph 5.8 mph 51 % 0.00 in
11:17 62.6 °F 42.1 °F 29.99 in NNE 2.3 mph 5.0 mph 47 % 0.00 in
11:22 63.1 °F 42.5 °F 29.99 in North 3.0 mph 5.8 mph 47 % 0.00 in
11:27 63.3 °F 41.6 °F 29.99 in ENE 1.6 mph 3.5 mph 45 % 0.00 in
11:32 63.6 °F 44.1 °F 29.99 in NNE 1.6 mph 4.6 mph 49 % 0.00 in
11:37 63.2 °F 42.6 °F 29.99 in ENE 1.8 mph 4.6 mph 47 % 0.00 in
11:42 63.4 °F 44.4 °F 30.00 in North 3.2 mph 4.6 mph 50 % 0.00 in
11:47 62.7 °F 41.0 °F 30.00 in NNE 3.5 mph 4.6 mph 45 % 0.00 in
11:52 62.4 °F 44.0 °F 29.99 in NNE 2.1 mph 4.6 mph 51 % 0.00 in
11:57 62.3 °F 43.4 °F 29.99 in ENE 2.6 mph 4.0 mph 50 % 0.00 in
12:02 62.7 °F 44.8 °F 29.99 in NE 1.2 mph 2.0 mph 52 % 0.00 in
12:07 63.0 °F 43.5 °F 29.99 in ENE 2.2 mph 3.5 mph 49 % 0.00 in
12:08 63.1 °F 44.2 °F 29.99 in ENE 0.6 mph 3.5 mph 50 % 0.00 in
12:13 62.8 °F 42.8 °F 29.99 in North 2.1 mph 3.5 mph 48 % 0.00 in
12:18 62.9 °F 40.6 °F 29.99 in NW 0.5 mph 1.2 mph 44 % 0.00 in
12:24 63.2 °F 43.7 °F 29.98 in NNE 2.3 mph 5.8 mph 49 % 0.00 in
12:29 63.2 °F 42.1 °F 29.98 in NNE 4.1 mph 5.8 mph 46 % 0.00 in
12:34 63.3 °F 44.3 °F 29.98 in NNW 1.6 mph 5.8 mph 50 % 0.00 in
12:39 63.6 °F 44.6 °F 29.98 in West 1.3 mph 3.5 mph 50 % 0.00 in
12:44 64.0 °F 42.8 °F 29.98 in WSW 0.1 mph 1.2 mph 46 % 0.00 in
12:49 64.4 °F 42.6 °F 29.98 in NNE 2.4 mph 6.0 mph 45 % 0.00 in
12:54 64.7 °F 43.4 °F 29.98 in North 3.4 mph 5.8 mph 46 % 0.00 in
12:59 65.2 °F 43.9 °F 29.98 in WNW 2.5 mph 5.8 mph 46 % 0.00 in
13:04 64.7 °F 42.3 °F 29.98 in WNW 0.1 mph 1.2 mph 44 % 0.00 in
13:09 64.2 °F 43.5 °F 29.98 in NW 1.1 mph 2.3 mph 47 % 0.00 in
13:14 64.0 °F 42.2 °F 29.97 in West 0.2 mph 3.5 mph 45 % 0.00 in
13:19 63.7 °F 41.4 °F 29.97 in WSW 1.5 mph 4.6 mph 44 % 0.00 in
13:24 63.5 °F 41.8 °F 29.97 in SW 3.8 mph 6.9 mph 45 % 0.00 in
13:29 63.6 °F 44.1 °F 29.97 in WSW 3.6 mph 6.0 mph 49 % 0.00 in
13:34 64.2 °F 43.5 °F 29.97 in NW 1.4 mph 5.8 mph 47 % 0.00 in
13:39 64.1 °F 41.1 °F 29.97 in West 0.6 mph 1.2 mph 43 % 0.00 in
13:44 64.3 °F 42.5 °F 29.97 in NW 1.2 mph 2.3 mph 45 % 0.00 in
13:50 64.5 °F 43.3 °F 29.97 in WNW 0.3 mph 2.0 mph 46 % 0.00 in
13:55 64.3 °F 41.3 °F 29.97 in WSW 0.9 mph 6.9 mph 43 % 0.00 in
14:00 64.2 °F 43.0 °F 29.97 in West 0.8 mph 3.5 mph 46 % 0.00 in
14:05 64.5 °F 42.7 °F 29.97 in North 1.4 mph 4.6 mph 45 % 0.00 in
14:10 64.8 °F 45.2 °F 29.97 in North 1.4 mph 3.5 mph 49 % 0.00 in
14:15 65.3 °F 43.4 °F 29.97 in NNW 2.4 mph 4.6 mph 45 % 0.00 in
14:20 65.4 °F 44.1 °F 29.97 in NNW 1.0 mph 3.5 mph 46 % 0.00 in
14:25 65.6 °F 43.1 °F 29.98 in NW 1.8 mph 3.5 mph 44 % 0.00 in
14:30 65.9 °F 43.4 °F 29.97 in NW 1.1 mph 3.5 mph 44 % 0.00 in
14:35 66.4 °F 43.8 °F 29.97 in NNW 2.3 mph 3.5 mph 44 % 0.00 in
14:40 66.8 °F 43.0 °F 29.98 in North 2.7 mph 4.6 mph 42 % 0.00 in
14:45 66.5 °F 43.3 °F 29.98 in North 0.7 mph 2.3 mph 43 % 0.00 in
14:50 66.4 °F 42.6 °F 29.98 in North 2.0 mph 4.0 mph 42 % 0.00 in
14:55 66.5 °F 43.3 °F 29.97 in North 2.9 mph 6.0 mph 43 % 0.00 in
15:00 66.1 °F 40.4 °F 29.97 in ENE 2.5 mph 3.5 mph 39 % 0.00 in
15:05 65.5 °F 41.8 °F 29.97 in NE 1.9 mph 3.5 mph 42 % 0.00 in
15:10 64.9 °F 40.0 °F 29.97 in ENE 0.2 mph 2.3 mph 40 % 0.00 in
15:15 64.6 °F 41.6 °F 29.97 in North 2.9 mph 3.5 mph 43 % 0.00 in
15:20 64.3 °F 40.1 °F 29.97 in ENE 3.0 mph 4.0 mph 41 % 0.00 in
15:25 63.6 °F 40.1 °F 29.97 in ENE 0.3 mph 1.2 mph 42 % 0.00 in
15:31 63.1 °F 39.6 °F 29.97 in ENE 1.0 mph 5.0 mph 42 % 0.00 in
15:36 62.8 °F 41.7 °F 29.97 in NE 1.0 mph 4.0 mph 46 % 0.00 in
15:41 62.6 °F 42.1 °F 29.97 in NE 1.0 mph 4.0 mph 47 % 0.00 in
15:46 62.6 °F 41.5 °F 29.97 in ENE 1.2 mph 3.5 mph 46 % 0.00 in
15:51 62.7 °F 39.9 °F 29.97 in ENE 2.4 mph 3.5 mph 43 % 0.00 in
15:55 62.4 °F 41.3 °F 29.97 in NE 0.7 mph 4.6 mph 46 % 0.00 in
16:01 62.5 °F 43.1 °F 29.97 in NE 1.5 mph 4.6 mph 49 % 0.00 in
16:06 62.5 °F 40.2 °F 29.97 in ENE 1.0 mph 6.0 mph 44 % 0.00 in
16:11 62.6 °F 41.5 °F 29.97 in Calm   4.0 mph 46 % 0.00 in
16:16 62.6 °F 39.8 °F 29.97 in ENE 2.0 mph 6.0 mph 43 % 0.00 in
16:21 62.6 °F 42.1 °F 29.97 in Calm   1.0 mph 47 % 0.00 in
16:26 62.6 °F 40.9 °F 29.97 in NNE 1.0 mph 4.0 mph 45 % 0.00 in
16:31 62.6 °F 41.5 °F 29.97 in NE 1.0 mph 5.0 mph 46 % 0.00 in
16:36 62.5 °F 41.4 °F 29.97 in ENE 1.0 mph 4.0 mph 46 % 0.00 in
16:41 62.5 °F 42.0 °F 29.97 in ENE 2.0 mph 4.0 mph 47 % 0.00 in
16:46 62.3 °F 40.7 °F 29.98 in ENE 0.2 mph 3.5 mph 45 % 0.00 in
16:51 62.3 °F 41.2 °F 29.97 in ENE 0.1 mph 1.2 mph 46 % 0.00 in
16:56 62.3 °F 41.2 °F 29.97 in ENE 1.0 mph 3.5 mph 46 % 0.00 in
17:01 62.3 °F 41.2 °F 29.97 in ENE 2.0 mph 3.5 mph 46 % 0.00 in
17:06 62.2 °F 40.0 °F 29.97 in NE 0.7 mph 2.3 mph 44 % 0.00 in
17:11 62.1 °F 41.1 °F 29.97 in ENE 1.4 mph 3.5 mph 46 % 0.00 in
17:16 61.8 °F 39.6 °F 29.97 in NE 1.4 mph 3.5 mph 44 % 0.00 in
17:21 61.7 °F 40.1 °F 29.97 in NE 0.3 mph 2.3 mph 45 % 0.00 in
17:26 61.6 °F 40.0 °F 29.97 in NE 2.3 mph 3.5 mph 45 % 0.00 in
17:31 61.4 °F 41.0 °F 29.97 in NE 0.1 mph 3.5 mph 47 % 0.00 in
17:36 61.3 °F 40.3 °F 29.97 in Calm   1.2 mph 46 % 0.00 in
17:41 61.1 °F 41.2 °F 29.97 in Calm   1.0 mph 48 % 0.00 in
17:46 60.9 °F 41.1 °F 29.97 in Calm     48 % 0.00 in
17:51 60.8 °F 41.0 °F 29.97 in NE 0.1 mph 2.3 mph 48 % 0.00 in
17:56 60.7 °F 39.2 °F 29.97 in NE 1.8 mph 3.5 mph 45 % 0.00 in
17:58 60.6 °F 39.1 °F 29.97 in Calm   1.2 mph 45 % 0.00 in
18:03 60.5 °F 39.6 °F 29.97 in NE 0.1 mph 1.2 mph 46 % 0.00 in
18:09 60.5 °F 39.6 °F 29.97 in Calm     46 % 0.00 in
18:14 60.4 °F 39.5 °F 29.97 in NE 0.2 mph 1.2 mph 46 % 0.00 in
18:19 60.3 °F 40.0 °F 29.97 in NE 0.2 mph 1.2 mph 47 % 0.00 in
18:24 60.1 °F 38.7 °F 29.97 in Calm     45 % 0.00 in
18:29 60.0 °F 40.2 °F 29.96 in Calm     48 % 0.00 in
18:34 59.8 °F 39.0 °F 29.96 in Calm   1.2 mph 46 % 0.00 in
18:39 59.7 °F 38.9 °F 29.97 in NE 0.7 mph 2.0 mph 46 % 0.00 in
18:44 59.6 °F 38.8 °F 29.97 in NE 1.0 mph 2.3 mph 46 % 0.00 in
18:49 59.5 °F 38.7 °F 29.97 in Calm   1.2 mph 46 % 0.00 in
18:54 59.5 °F 38.1 °F 29.97 in NE 0.2 mph 1.2 mph 45 % 0.00 in
18:59 59.4 °F 38.6 °F 29.97 in NE 0.1 mph 2.3 mph 46 % 0.00 in
19:04 59.3 °F 39.1 °F 29.97 in NE 0.4 mph 2.3 mph 47 % 0.00 in
19:09 59.2 °F 40.0 °F 29.98 in Calm     49 % 0.00 in
19:14 59.1 °F 40.5 °F 29.98 in Calm     50 % 0.00 in
19:19 58.9 °F 39.2 °F 29.98 in NE 0.4 mph 1.2 mph 48 % 0.00 in
19:24 58.7 °F 40.6 °F 29.98 in Calm     51 % 0.00 in
19:29 58.5 °F 39.9 °F 29.98 in Calm     50 % 0.00 in
19:34 58.4 °F 40.3 °F 29.98 in Calm     51 % 0.00 in
19:39 58.3 °F 40.2 °F 29.98 in Calm   1.2 mph 51 % 0.00 in
19:44 58.1 °F 39.5 °F 29.98 in Calm     50 % 0.00 in
19:49 57.9 °F 40.9 °F 29.98 in Calm     53 % 0.00 in
19:54 57.7 °F 42.1 °F 29.98 in Calm     56 % 0.00 in
19:59 57.5 °F 42.8 °F 29.99 in Calm   1.0 mph 58 % 0.00 in
20:00 57.5 °F 42.8 °F 29.99 in Calm   1.2 mph 58 % 0.00 in
20:05 57.2 °F 43.0 °F 29.99 in ENE 0.2 mph 1.2 mph 59 % 0.00 in
20:10 56.9 °F 42.7 °F 29.99 in East 1.2 mph 3.5 mph 59 % 0.00 in
20:15 56.6 °F 42.4 °F 29.99 in Calm     59 % 0.00 in
20:20 56.4 °F 42.7 °F 29.99 in East 0.4 mph 1.0 mph 60 % 0.00 in
20:25 56.3 °F 43.0 °F 29.99 in East 0.6 mph 1.2 mph 61 % 0.00 in
20:30 56.0 °F 43.2 °F 29.99 in East 0.2 mph 1.2 mph 62 % 0.00 in
20:35 55.7 °F 42.9 °F 29.99 in ESE 0.5 mph 3.5 mph 62 % 0.00 in
20:40 55.4 °F 42.6 °F 30.00 in Calm     62 % 0.00 in
20:45 55.3 °F 42.9 °F 30.00 in Calm   2.3 mph 63 % 0.00 in
20:50 55.2 °F 42.8 °F 30.00 in Calm     63 % 0.00 in
20:55 55.1 °F 43.1 °F 30.00 in SE 0.9 mph 2.3 mph 64 % 0.00 in
21:01 54.9 °F 42.9 °F 30.00 in SE 0.7 mph 1.2 mph 64 % 0.00 in
21:06 54.8 °F 43.3 °F 30.00 in SSE 0.6 mph 2.0 mph 65 % 0.00 in
21:11 54.7 °F 43.2 °F 30.01 in Calm   2.0 mph 65 % 0.00 in
21:16 54.5 °F 43.0 °F 30.01 in SSE 0.6 mph 2.3 mph 65 % 0.00 in
21:21 54.4 °F 43.3 °F 30.01 in South 0.6 mph 2.3 mph 66 % 0.00 in
21:26 54.2 °F 43.1 °F 30.02 in South 0.3 mph 2.3 mph 66 % 0.00 in
21:31 54.1 °F 43.4 °F 30.01 in Calm   2.0 mph 67 % 0.00 in
21:36 53.9 °F 43.2 °F 30.02 in Calm   1.2 mph 67 % 0.00 in
21:41 53.8 °F 42.7 °F 30.02 in Calm   1.0 mph 66 % 0.00 in
21:46 53.6 °F 42.9 °F 30.02 in SSW 0.7 mph 1.2 mph 67 % 0.00 in
21:51 53.5 °F 43.2 °F 30.02 in SSW 1.0 mph 3.5 mph 68 % 0.00 in
21:56 53.3 °F 43.4 °F 30.02 in SW 1.7 mph 3.0 mph 69 % 0.00 in
22:01 53.2 °F 43.3 °F 30.02 in SW 0.5 mph 3.5 mph 69 % 0.00 in
22:06 53.1 °F 43.2 °F 30.02 in Calm   1.2 mph 69 % 0.00 in
22:11 52.9 °F 43.4 °F 30.02 in SW 0.5 mph 2.3 mph 70 % 0.00 in
22:16 52.8 °F 43.7 °F 30.02 in West 3.6 mph 4.6 mph 71 % 0.00 in
22:21 52.6 °F 43.5 °F 30.02 in West 0.9 mph 2.3 mph 71 % 0.00 in
22:26 52.6 °F 43.5 °F 30.02 in West 0.1 mph 2.3 mph 71 % 0.00 in
22:31 52.5 °F 43.4 °F 30.02 in Calm   1.2 mph 71 % 0.00 in
22:36 52.4 °F 43.6 °F 30.02 in West 1.3 mph 2.3 mph 72 % 0.00 in
22:41 52.4 °F 43.6 °F 30.02 in West 1.2 mph 3.0 mph 72 % 0.00 in
22:46 52.4 °F 44.0 °F 30.02 in Calm   1.0 mph 73 % 0.00 in
22:51 52.3 °F 43.9 °F 30.02 in Calm     73 % 0.00 in
22:56 52.3 °F 43.9 °F 30.02 in Calm     73 % 0.00 in
23:01 52.3 °F 43.9 °F 30.02 in WNW 1.1 mph 2.0 mph 73 % 0.00 in
23:06 52.3 °F 42.8 °F 30.02 in NW 0.1 mph 2.3 mph 70 % 0.00 in
23:11 52.3 °F 42.4 °F 30.02 in NNE 0.3 mph 3.0 mph 69 % 0.00 in
23:16 52.3 °F 41.7 °F 30.02 in ENE 3.0 mph 5.8 mph 67 % 0.00 in
23:21 52.3 °F 41.3 °F 30.02 in North 3.6 mph 6.0 mph 66 % 0.00 in
23:26 52.4 °F 41.4 °F 30.02 in NNE 2.9 mph 5.0 mph 66 % 0.00 in
23:31 52.5 °F 41.5 °F 30.02 in NNE 2.5 mph 5.0 mph 66 % 0.00 in
23:36 52.5 °F 41.5 °F 30.02 in NNE 4.4 mph 8.1 mph 66 % 0.00 in
23:41 52.6 °F 40.4 °F 30.02 in North 3.2 mph 6.9 mph 63 % 0.00 in
23:46 52.6 °F 40.4 °F 30.02 in NNE 3.7 mph 4.6 mph 63 % 0.00 in
23:51 52.6 °F 40.8 °F 30.01 in NNE 2.4 mph 3.5 mph 64 % 0.00 in
23:57 52.6 °F 41.2 °F 30.01 in North 2.3 mph 4.6 mph 65 % 0.00 in
Crab Meadow Weather
Compliments of Weather Underground - 3 mb

Script developed by  Jim McMurry - jmcmurry@mwt.net Adapted for the template by  Wim van der Kuil - Leuven-Template.eu

Extremes: The greatest annual rainfall in the United States was 184.56 inches at Wynooches, Oxbow, Washington in 1931.